sat.trackr.live / text

‹ back to catalog

QIANFAN-39

NORAD 62240 · 2024-232D

PAYLOAD ACTIVE UNKNOWN

§ Identity

Operator
Country
PRC
Launch date
2024-12-05
Launch site
TAISC
Launch vehicle
Mass (kg)
RCS (m²)

External: N2YO · Heavens-Above · Gunter

§ Orbital elements

Epoch: 2026-09-22T20:37:37.382880Z

Period
101.01 min
Inclination
89.0144°
Eccentricity
0.0014800
Mean motion
14.25563530 rev/d
Perigee alt
796.0 km
Apogee alt
817.2 km
Semi-major
7,184.7 km
B*
1.2566e-4
RAAN
4.9779°
Arg perigee
220.8385°
Mean anomaly
139.1700°
Rev number
14,186

§ Raw data

QIANFAN-391 62240U 24232D   26265.85946045  .00000312  00000+0  12566-3 0  99972 62240  89.0144   4.9779 0014800 220.8385 139.1700 14.25563530141864

JSON: /api/v1/satellites/62240 · /tle

For live sub-satellite position, see the globe view (requires WebGL).

§ Visibility from observer

Set your observer location to see the next 7 days of passes ≥ 10°. The values pass through the URL so the page stays shareable.

No JS? Fill the form by hand. The geolocation button needs JavaScript.